• In Germany
  • List of Countries
  • For 7 days
  • Water Temperature
  • Satellite Maps
  • Weather Map
  • Weather Widgets
  • user-avatar
    Login

    Hourly Weather Bihać

    Today, 21 September, Thursday

    Time Temperature Precipitation Wind Pressure Humidity
    00:00 +7°C° 0 mm 3 mps 711 mmHg 84%
    01:00 +7°C° 0 mm 3 mps 710 mmHg 84%
    02:00 +7°C° 0 mm 2 mps 710 mmHg 83%
    03:00 +7°C° 0 mm 2 mps 710 mmHg 81%
    04:00 +6°C° 0 mm 2 mps 711 mmHg 80%
    05:00 +7°C° 0 mm 2 mps 711 mmHg 79%
    06:00 +7°C° 0 mm 2 mps 711 mmHg 78%
    07:00 +9°C° 0 mm 2 mps 711 mmHg 76%
    08:00 +12°C° 0 mm 2 mps 711 mmHg 67%
    09:00 +13°C° 0 mm 2 mps 712 mmHg 58%
    10:00 +15°C° 0 mm 2 mps 712 mmHg 50%
    11:00 +16°C° 0 mm 3 mps 712 mmHg 48%
    12:00 +17°C° 0 mm 3 mps 712 mmHg 46%
    13:00 +17°C° 0 mm 3 mps 712 mmHg 45%
    14:00 +17°C° 0 mm 3 mps 712 mmHg 48%
    15:00 +16°C° 0 mm 3 mps 712 mmHg 50%
    16:00 +16°C° 0 mm 3 mps 712 mmHg 53%
    17:00 +14°C° 0 mm 2 mps 712 mmHg 60%
    18:00 +12°C° 0 mm 2 mps 712 mmHg 67%
    19:00 +10°C° 0 mm 1 mps 712 mmHg 74%
    20:00 +10°C° 0 mm 1 mps 712 mmHg 76%
    21:00 +9°C° 0 mm 1 mps 712 mmHg 78%
    22:00 +9°C° 0 mm 1 mps 712 mmHg 80%
    23:00 +9°C° 0 mm 1 mps 712 mmHg 81%

    Tomorrow, 22 September, Friday

    Time Temperature Precipitation Wind Pressure Humidity
    00:00 +9°C° 0 mm 1 mps 712 mmHg 82%
    01:00 +8°C° 0 mm 1 mps 712 mmHg 83%
    02:00 +8°C° 0 mm 1 mps 712 mmHg 83%
    03:00 +8°C° 0 mm 1 mps 712 mmHg 84%
    04:00 +8°C° 0 mm 1 mps 712 mmHg 84%
    05:00 +9°C° 0 mm 1 mps 712 mmHg 82%
    06:00 +10°C° 0 mm 1 mps 713 mmHg 80%
    07:00 +11°C° 0 mm 1 mps 713 mmHg 78%
    08:00 +13°C° 0 mm 1 mps 713 mmHg 69%
    09:00 +15°C° 0 mm 1 mps 714 mmHg 60%
    10:00 +19°C° 0 mm 1 mps 714 mmHg 51%
    11:00 +20°C° 0 mm 1 mps 714 mmHg 50%
    12:00 +19°C° 0 mm 2 mps 714 mmHg 48%
    13:00 +20°C° 0 mm 2 mps 714 mmHg 47%
    14:00 +19°C° 0 mm 2 mps 714 mmHg 51%
    15:00 +19°C° 0 mm 2 mps 714 mmHg 55%
    16:00 +18°C° 0 mm 2 mps 713 mmHg 59%
    17:00 +16°C° 0 mm 1 mps 713 mmHg 68%
    18:00 +14°C° 0 mm 1 mps 713 mmHg 76%
    19:00 +12°C° 0 mm 1 mps 713 mmHg 85%
    20:00 +12°C° 0 mm 1 mps 713 mmHg 86%
    21:00 +11°C° 0 mm 1 mps 714 mmHg 88%
    22:00 +11°C° 0 mm 1 mps 714 mmHg 89%
    23:00 +11°C° 0 mm 1 mps 714 mmHg 89%

    Day after tomorrow, 23 September, Saturday

    Time Temperature Precipitation Wind Pressure Humidity
    00:00 +11°C° 0 mm 1 mps 714 mmHg 89%
    01:00 +9°C° 0 mm 0 mps 714 mmHg 89%
    02:00 +10°C° 0 mm 1 mps 714 mmHg 89%
    03:00 +10°C° 0 mm 1 mps 714 mmHg 88%
    04:00 +10°C° 0 mm 1 mps 713 mmHg 88%
    05:00 +10°C° 0 mm 1 mps 714 mmHg 85%
    06:00 +11°C° 0 mm 1 mps 714 mmHg 83%
    07:00 +12°C° 0 mm 1 mps 714 mmHg 81%
    08:00 +14°C° 0 mm 1 mps 714 mmHg 71%
    09:00 +18°C° 0 mm 1 mps 714 mmHg 62%
    10:00 +20°C° 0 mm 1 mps 715 mmHg 53%
    11:00 +21°C° 0 mm 1 mps 714 mmHg 52%
    12:00 +21°C° 0 mm 1 mps 714 mmHg 50%
    13:00 +21°C° 0 mm 2 mps 714 mmHg 49%
    14:00 +20°C° 0 mm 2 mps 713 mmHg 53%
    15:00 +20°C° 0 mm 2 mps 713 mmHg 56%
    16:00 +19°C° 0 mm 2 mps 713 mmHg 60%
    17:00 +18°C° 0 mm 1 mps 713 mmHg 69%
    18:00 +15°C° 0 mm 1 mps 712 mmHg 78%
    19:00 +13°C° 0 mm 1 mps 712 mmHg 86%
    20:00 +13°C° 0 mm 1 mps 712 mmHg 88%
    21:00 +12°C° 0 mm 1 mps 712 mmHg 89%
    22:00 +12°C° 0 mm 1 mps 712 mmHg 90%
    23:00 +12°C° 0 mm 1 mps 712 mmHg 90%

    24 September, Sunday

    Time Temperature Precipitation Wind Pressure Humidity
    00:00 +12°C° 0 mm 1 mps 712 mmHg 89%
    01:00 +11°C° 0 mm 1 mps 712 mmHg 89%
    02:00 +11°C° 0 mm 1 mps 712 mmHg 89%
    03:00 +10°C° 0 mm 2 mps 712 mmHg 88%
    04:00 +10°C° 0 mm 2 mps 711 mmHg 88%
    05:00 +12°C° 0 mm 2 mps 711 mmHg 87%
    06:00 +12°C° 0 mm 2 mps 712 mmHg 85%
    07:00 +13°C° 0 mm 2 mps 712 mmHg 84%
    08:00 +15°C° 0.2 mm 2 mps 712 mmHg 77%
    09:00 +17°C° 0.2 mm 2 mps 712 mmHg 70%
    10:00 +19°C° 0.2 mm 2 mps 712 mmHg 63%
    11:00 +19°C° 0.9 mm 2 mps 712 mmHg 67%
    12:00 +19°C° 0.9 mm 2 mps 712 mmHg 71%
    13:00 +19°C° 0.9 mm 2 mps 712 mmHg 74%
    14:00 +18°C° 1 mm 2 mps 711 mmHg 77%
    15:00 +17°C° 1 mm 2 mps 711 mmHg 80%
    16:00 +17°C° 1 mm 2 mps 711 mmHg 83%
    17:00 +16°C° 0.9 mm 2 mps 711 mmHg 85%
    18:00 +15°C° 0.9 mm 2 mps 711 mmHg 88%
    19:00 +14°C° 0.9 mm 2 mps 711 mmHg 91%
    20:00 +14°C° 0.7 mm 2 mps 711 mmHg 91%
    21:00 +14°C° 0.7 mm 2 mps 711 mmHg 91%
    22:00 +14°C° 0.7 mm 2 mps 711 mmHg 91%
    23:00 +13°C° 0.4 mm 2 mps 711 mmHg 91%

    25 September, Monday

    Time Temperature Precipitation Wind Pressure Humidity
    00:00 +13°C° 0.4 mm 2 mps 711 mmHg 92%
    01:00 +13°C° 0.4 mm 2 mps 711 mmHg 92%
    02:00 +13°C° 0.5 mm 2 mps 711 mmHg 92%
    03:00 +13°C° 0.5 mm 2 mps 711 mmHg 92%
    04:00 +12°C° 0.5 mm 2 mps 710 mmHg 92%
    05:00 +13°C° 0.3 mm 2 mps 711 mmHg 91%
    06:00 +13°C° 0.3 mm 2 mps 711 mmHg 91%
    07:00 +13°C° 0.3 mm 2 mps 711 mmHg 90%
    08:00 +15°C° 0.2 mm 2 mps 711 mmHg 85%
    09:00 +16°C° 0.2 mm 2 mps 711 mmHg 80%
    10:00 +17°C° 0.2 mm 2 mps 712 mmHg 76%
    11:00 +18°C° 0.3 mm 2 mps 712 mmHg 75%
    12:00 +18°C° 0.3 mm 2 mps 712 mmHg 74%
    13:00 +19°C° 0.3 mm 3 mps 712 mmHg 73%
    14:00 +18°C° 0.5 mm 2 mps 712 mmHg 75%
    15:00 +18°C° 0.5 mm 2 mps 712 mmHg 78%
    16:00 +17°C° 0.5 mm 2 mps 712 mmHg 80%
    17:00 +16°C° 0.2 mm 2 mps 712 mmHg 84%
    18:00 +15°C° 0.2 mm 2 mps 712 mmHg 87%
    19:00 +14°C° 0.2 mm 1 mps 712 mmHg 91%
    20:00 +13°C° 0.2 mm 1 mps 712 mmHg 92%
    21:00 +13°C° 0.2 mm 1 mps 712 mmHg 92%
    22:00 +13°C° 0.2 mm 1 mps 712 mmHg 93%
    23:00 +13°C° 0.1 mm 1 mps 712 mmHg 93%

    26 September, Tuesday

    Time Temperature Precipitation Wind Pressure Humidity
    00:00 +12°C° 0.1 mm 1 mps 712 mmHg 93%
    01:00 +12°C° 0.1 mm 2 mps 712 mmHg 93%
    02:00 +12°C° 0 mm 2 mps 711 mmHg 92%
    03:00 +12°C° 0 mm 2 mps 711 mmHg 92%
    04:00 +12°C° 0 mm 2 mps 711 mmHg 92%
    05:00 +12°C° 0 mm 2 mps 711 mmHg 91%
    06:00 +13°C° 0 mm 2 mps 711 mmHg 91%
    07:00 +13°C° 0 mm 2 mps 712 mmHg 90%
    08:00 +15°C° 0 mm 2 mps 712 mmHg 84%
    09:00 +16°C° 0 mm 1 mps 712 mmHg 78%
    10:00 +19°C° 0 mm 1 mps 712 mmHg 71%
    11:00 +20°C° 0 mm 1 mps 712 mmHg 68%
    12:00 +21°C° 0 mm 1 mps 712 mmHg 64%
    13:00 +22°C° 0 mm 1 mps 712 mmHg 61%
    14:00 +21°C° 0.1 mm 1 mps 712 mmHg 64%
    15:00 +20°C° 0.1 mm 1 mps 712 mmHg 68%
    16:00 +20°C° 0.1 mm 1 mps 712 mmHg 71%
    17:00 +18°C° 0 mm 1 mps 712 mmHg 77%
    18:00 +16°C° 0 mm 1 mps 712 mmHg 84%
    19:00 +14°C° 0 mm 1 mps 712 mmHg 90%
    20:00 +14°C° 0.1 mm 1 mps 712 mmHg 91%
    21:00 +14°C° 0.1 mm 2 mps 712 mmHg 91%
    22:00 +13°C° 0.1 mm 2 mps 712 mmHg 92%
    23:00 +13°C° 0 mm 2 mps 712 mmHg 92%
    Show more